User: anonymous   Login
Location: Unspecified
(0.0000°N, 0.0000°E)
Time: 05:42:30
(UTC+00:00)
Language:

Optus B1 - Orbit

View from above orbital plane
View from above orbital plane
View from above satellite
View from above satellite

Ground track
Ground track

The orbit data is extracted from the following two-line orbital elements,

1 22087U 92054A   14354.38512736 -.00000068  00000-0  00000+0 0   277
2 22087 007.2336 053.8306 0006429 039.1714 050.1710 00.99202721 93067
Epoch (UTC): 20 December 2014 09:14:35
Eccentricity: 0.0006429
inclination: 7.2336°
perigee height: 36061 km
apogee height: 36116 km
right ascension of ascending node: 53.8306°
argument of perigee: 39.1714°
revolutions per day: 0.99202721
mean anomaly at epoch: 50.1710°
orbit number at epoch: 9306

The dashed part of the orbit path shows where the satellite is in the earth's shadow,  

DLR